* Astronomy

Members Login
Username 
 
Password 
    Remember Me  
Post Info TOPIC: Asteroid 2001 FA58


L

Posts: 131433
Date:
RE: Asteroid 2001 FA58
Permalink  
 


The 130 - 280 metre wide asteroid 2001 FA58 will make a close pass (37.72 lunar distances, 0.0969 AU), travelling at 19.43 km/second, to the Earth on the 31st March 2018 @ 05:36 UT ±00:01.

See more

The Lunar Distance (LD), the distance between Earth and the Moon, equals 384,401 km, (or 0.00256 AU).



__________________


L

Posts: 131433
Date:
Permalink  
 

Orbital elements:
2001 FA58                                           PHA, Earth MOID = 0.0344 AU
Epoch 2011 Aug. 27.0 TT = JDT 2455800.5                 MPC
M   8.06124              (2000.0)            P               Q
n   0.28963407     Peri.  112.16423     +0.00649957     +0.99858683
a   2.2624012      Node   158.01006     -0.96151395     +0.02072961
e   0.7158539      Incl.    8.09784     -0.27467924     -0.04893497
P   3.40           H   21.6           G   0.15           U   1

MPEC 2011 - T13



__________________
Page 1 of 1  sorted by
 
Quick Reply

Please log in to post quick replies.



Create your own FREE Forum
Report Abuse
Powered by ActiveBoard